STARLINK-1521 (45768 NORAD) Tracking and Keplerian Element Data

This shows tracking and keplerian element data for the satellite.

Feedback or suggestion? Click here.




ElementValue
Catalog45768
NameSTARLINK-1521
Epoch Orbit428
Epoch Day185.50001157
Epoch Year2020
RAAN197.6141
Inclination52.998
Eccentricity0.0001248
Argument of Perigee103.4075
Mean Anonmoly240.3699
Mean Motion15.63056894
Decay Rate-0.00435075
L11 45768U 20038AQ 20185.50001157 -.00435075 00000-0 -49451-2 0 9999
L22 45768 52.9980 197.6141 0001248 103.4075 240.3699 15.63056894 4283

Live tracking and technical data element details for STARLINK-1521 (NORAD 45768). STARLINK-1521 can be tracked NOW for your location showing map with azimuth and elevation plus other details from your city location.

Track the satellite on the map from your city or location and see movement details for azimuth, elevation, latitude, longitude, range, height, and movement on the map or in text.







IsCatalogInMostPopularTable: catalog: 45768, numindb: 4
Update: records affected: 1



GetName: 45768 STARLINK-1521

Hit Count: updated at: Sat, 04 Jul 2020 02:35:33 GMT